Regional Weather Roundup
Issued by NWS Portland, ME

Current Version | Previous Version | Graphics & Text | Print | Product List | Glossary On
Versions: 1 2 3 4 5 6 7 8 9 10 11 12 13 14 15 16 17 18 19 20 21 22 23 24 25 26 27 28 29 30 31 32 33 34 35 36 37 38 39 40 41 42 43 44 45 46 47 48 49 50
000
ASUS41 KGYX 110505
RWRGYX
WEATHER ROUNDUP FOR MAINE AND NEW HAMPSHIRE
NATIONAL WEATHER SERVICE GRAY ME
1200 AM EST SUN DEC 11 2016

MEZ002-005-006-010-012-015-018-020-021-024-026-027-029-110600-
MAINE

CITY           SKY/WX    TMP DP  RH WIND       PRES   REMARKS
PORTLAND       CLEAR     13   5  70 CALM      30.42R
SANFORD        CLEAR      6   1  80 SW6       30.40S
BAR HARBOR     CLEAR     15   4  61 NW3       30.36S
WISCASSET      CLEAR     10   5  80 CALM      30.41R
ROCKLAND       CLEAR     11   5  77 CALM      30.38S
FRYEBURG       CLEAR      0  -4  83 CALM      30.37S
LEWISTONAUBURN CLEAR      4  -1  80 CALM      30.39R
AUGUSTA        CLEAR     15   6  67 W3        30.37R
WATERVILLE     CLEAR      9   4  80 SW3       30.34R
BANGOR         PTCLDY    12   3  67 NW3       30.34S
GREENVILLE       N/A     10   3  73 VRB7      30.19F
MILLINOCKET    CLEAR     13   3  64 NW8       30.30S
HOULTON        CLEAR      8   1  73 NW5       30.25R
PRESQUE ISLE   CLEAR      5   0  79 W7        30.25S
FRENCHVILLE    CLOUDY     7   0  73 W10       30.18R WCI  -8
CARIBOU        PTCLDY     5  -1  76 W6        30.22R
$$

NHZ002-005-008-009-011-012-014-110600-
NEW HAMPSHIRE

CITY           SKY/WX    TMP DP  RH WIND       PRES   REMARKS
PORTSMOUTH     CLEAR     17   7  65 W6        30.41S
ROCHESTER      CLEAR     15   5  64 SW5       30.39S
NASHUA         CLEAR     11   7  84 CALM        N/A
MANCHESTER     CLEAR     14   6  70 CALM      30.41S
CONCORD        CLEAR      8   2  76 CALM      30.41R
LACONIA        CLEAR     10   7  87 SW3       30.38S
PLYMOUTH         N/A      3   1  88 CALM      30.38S
BERLIN         CLEAR     -4 -12  68 CALM      30.31R
WHITEFIELD     PTCLDY     1  -5  75 CALM      30.33R
JAFFREY        CLEAR      6   1  80 CALM      30.35S
KEENE          CLEAR      6   4  91 CALM      30.41S
LEBANON        CLEAR      5   1  83 CALM      30.39R
MT WASHINGTON  FOG       -9  -9 100 NW41        N/A  VSB 1/8 WCI -42
$$

VTZ005-007-008-110600-
VERMONT

CITY           SKY/WX    TMP DP  RH WIND       PRES   REMARKS
ST JOHNSBURY     N/A      5   0  79 MISG      30.36R
MONTPELIER     CLOUDY     5   2  87 CALM      30.36R
BURLINGTON     CLOUDY    20  12  71 S6        30.38S
$$

MAZ007-012-024-CTZ003-RIZ002-NYZ038-NYZ072-110600-
SOUTHERN NEW ENGLAND AND NY

CITY           SKY/WX    TMP DP  RH WIND       PRES   REMARKS
BOSTON         CLEAR     22   7  52 NW5       30.44S
WORCESTER      CLEAR     16   7  67 W5        30.36R
NANTUCKET      CLEAR     27  10  49 NW13      30.42S WCI  16
PROVIDENCE     PTCLDY    20   9  62 CALM      30.44S
HARTFORD       CLEAR     15   9  76 CALM      30.43S
ALBANY         MOCLDY    18  13  80 S3        30.42S
NEW YORK CITY  CLEAR     32  17  54 NW12      30.46F
$$

ANZ081-ANZ082-ANZ150-NHZ014-MEZ023>029-110600-
COASTAL MARINE OBSERVATIONS

STATION/POSITION TIME  TEMP    WIND        PRES    WAVE
                       AIR SEA DIR/SP/G            HT/PER
                 (UTC) (F)     (DEG/KT/KT) (MB)    (FT/S)
MOUNT DESERT ROC 0500   22                 1027.6R
MATINICUS ROCK   0400   22     330/ 23/ 26 1027.6R
ISLE OF SHOALS   0400   23     300/ 11/ 15 1029.9R
JEFFREYS LEDGE   0408      50                N/A     3/ 5
CASHES LEDGE BUO 0350   26 49  310/ 17/ 23 1028.6    5/ 6
GEORGES BANK BUO 0350   36 48              1025.1    9/ 7
$$

.............KEY..............
   WCI - WIND CHILL
   TC  - TEMPERATURE IN CELSIUS
   VSB - VISIBILITY IN MILES
   HX  - HEAT INDEX
   FAIR- INDICATES FEW OR NO CLOUDS BELOW 12,000 FT, WITH NO
         SIGNIFICANT WEATHER AND/OR OBSTRUCTIONS TO VISIBILITY.






USA.gov is the U.S. government's official web portal to all federal, state and local government web resources and services.